College Station, TX

9:27 PM CDT on April 24, 2017 (GMT -0500)
Easterwood

Weather History for KCLL - December, 2012

Change the Weather History Date:

Wednesday, December 26, 2012

  Actual Average Record
Temperature  
Mean Temperature 36 °F 51 °F  
Max Temperature 43 °F 61 °F 80 °F (1916)
Min Temperature 29 °F 41 °F 12 °F (1983)
Degree Days  
Heating Degree Days 29 15  
Month to date heating degree days 192 337  
Since 1 July heating degree days 376 562  
Cooling Degree Days 0 0  
Month to date cooling degree days 57 13  
Year to date cooling degree days 3616 3086  
Moisture  
Dew Point 21 °F    
Average Humidity 56    
Maximum Humidity 69    
Minimum Humidity 43    
Precipitation  
Precipitation 0.00 in 0.11 in 1.73 in (1990)
Month to date precipitation 3.21 2.72  
Year to date precipitation 40.66 39.55  
Sea Level Pressure  
Sea Level Pressure 30.19 in    
Wind  
Wind Speed 10 mph (NNW)    
Max Wind Speed 26 mph    
Max Gust Speed 36 mph    
Visibility 10 miles    
Events      
T = Trace of Precipitation, MM = Missing Value Source: NWS Daily Summary

Daily Weather History Graph

Daily Weather History Graph

Search for Another Location

Airport or City:

Trip Planner

Search our weather history database for the weather conditions in past years. The results will help you decide how hot, cold, wet, or windy it might be!

Date:

Astronomy

Dec. 26, 2012 Rise Set
Actual Time 7:20 AM CST 5:31 PM CST
Civil Twilight 6:54 AM CST 5:58 PM CST
Nautical Twilight 6:24 AM CST 6:28 PM CST
Astronomical Twilight 5:54 AM CST 6:57 PM CST
Moon 4:24 PM CST (12/26) 5:47 AM CST (12/26)
Length of Visible Light 11h 03m
Length of Day
10h 10m
Waxing Gibbous, 97% of the Moon is Illuminated
Dec 26
Waxing Gibbous
Dec 28
Full
Jan 4
Last Quarter
Jan 11
New
Jan 18
First Quarter

Hourly Weather History & Observations

Time (CST) Temp. Windchill Dew Point Humidity Pressure Visibility Wind Dir Wind Speed Gust Speed Precip Events Conditions
12:53 AM 33.1 °F 23.0 °F 23.0 °F 66% 30.13 in 10.0 mi NNW 15.0 mph 27.6 mph N/A   Overcast
1:53 AM 32.0 °F 22.1 °F 21.9 °F 66% 30.12 in 10.0 mi NNW 13.8 mph 26.5 mph N/A   Overcast
2:06 AM 32.0 °F 21.6 °F 21.2 °F 64% 30.13 in 10.0 mi NNW 15.0 mph 23.0 mph N/A   Overcast
2:53 AM 32.0 °F 19.8 °F 23.0 °F 69% 30.13 in 10.0 mi NNW 20.7 mph 27.6 mph N/A   Overcast
3:53 AM 32.0 °F 21.6 °F 21.9 °F 66% 30.15 in 10.0 mi NW 15.0 mph 21.9 mph N/A   Overcast
4:53 AM 32.0 °F 21.2 °F 21.0 °F 64% 30.18 in 10.0 mi NW 16.1 mph 23.0 mph N/A   Overcast
5:53 AM 30.9 °F 19.8 °F 19.9 °F 64% 30.22 in 10.0 mi NW 16.1 mph 23.0 mph N/A   Overcast
6:25 AM 30.2 °F 17.8 °F 19.4 °F 64% 30.22 in 10.0 mi NW 19.6 mph 25.3 mph N/A   Overcast
6:53 AM 30.0 °F 19.1 °F 19.9 °F 66% 30.24 in 10.0 mi NW 15.0 mph - N/A   Overcast
7:53 AM 28.9 °F 17.3 °F 19.0 °F 67% 30.24 in 10.0 mi NW 16.1 mph 24.2 mph N/A   Mostly Cloudy
8:41 AM 30.2 °F 19.3 °F 19.4 °F 64% 30.26 in 10.0 mi NW 15.0 mph 24.2 mph N/A   Scattered Clouds
8:53 AM 30.0 °F 19.5 °F 19.0 °F 64% 30.27 in 10.0 mi NW 13.8 mph 24.2 mph N/A   Partly Cloudy
9:53 AM 32.0 °F 22.1 °F 19.9 °F 61% 30.29 in 10.0 mi NNW 13.8 mph 24.2 mph N/A   Clear
10:53 AM 35.1 °F 26.4 °F 19.9 °F 54% 30.29 in 10.0 mi NNW 12.7 mph - N/A   Clear
11:53 AM 37.0 °F 27.7 °F 19.9 °F 50% 30.24 in 10.0 mi NNW 16.1 mph 20.7 mph N/A   Clear
12:53 PM 39.9 °F 33.4 °F 19.9 °F 45% 30.22 in 10.0 mi North 10.4 mph - N/A   Clear
1:53 PM 39.9 °F 35.1 °F 19.9 °F 45% 30.20 in 10.0 mi WNW 6.9 mph - N/A   Clear
2:53 PM 42.1 °F 37.1 °F 21.0 °F 43% 30.17 in 10.0 mi NW 8.1 mph - N/A   Clear
3:53 PM 41.0 °F 35.2 °F 21.0 °F 45% 30.17 in 10.0 mi NNW 9.2 mph - N/A   Clear
4:53 PM 41.0 °F 35.8 °F 21.0 °F 45% 30.16 in 10.0 mi North 8.1 mph - N/A   Clear
5:53 PM 37.9 °F 34.4 °F 23.0 °F 55% 30.16 in 10.0 mi North 4.6 mph - N/A   Clear
6:53 PM 37.0 °F 33.3 °F 24.1 °F 59% 30.16 in 10.0 mi North 4.6 mph - N/A   Clear
7:53 PM 37.0 °F - 24.1 °F 59% 30.17 in 10.0 mi Calm Calm - N/A   Clear
8:53 PM 36.0 °F - 24.1 °F 62% 30.17 in 10.0 mi Calm Calm - N/A   Clear
9:53 PM 33.1 °F - 25.0 °F 72% 30.18 in 10.0 mi Calm Calm - N/A   Clear
10:53 PM 34.0 °F 31.0 °F 24.1 °F 67% 30.17 in 10.0 mi East 3.5 mph - N/A   Clear
11:53 PM 33.1 °F 30.0 °F 24.1 °F 70% 30.16 in 10.0 mi ENE 3.5 mph - N/A   Clear